Powrót do katalogu

ARIANE 44LP+ R/B

AktywnyHEO
NORAD 23538·ROCKET BODY·🇫🇷 France

Wystrzelony Mar 28, 1995 z Guiana Space Centre

Loading…

Następne Przeloty (najbliższe 24 godziny)

TLE

ŚwieżeSource: Space-Track

Epoka: Sep 14, 2026, 05:06 UTC

1 23538U 95016C   26257.21267128  .00003600  00000-0  11868-2 0  9998
2 23538   6.3661 109.9202 6023157 151.7157 261.5270  3.97977914331342

Śledź ARIANE 44LP+ R/B w czasie rzeczywistym z AllMySat

Download on the App Store